Regional Weather Roundup
Issued by NWS

Home | Current Version | Previous Version | Text Only | Print | Product List | Glossary On
Versions: 1 2 3 4 5 6 7 8 9 10 11 12 13 14 15 16 17 18 19 20 21 22 23 24 25 26 27 28 29 30 31 32 33 34 35 36 37 38 39 40 41 42 43 44 45 46 47 48 49 50
440
ASUS43 KDTX 280510
RWRMI
MICHIGAN HOURLY REGIONAL WEATHER ROUNDUP
NATIONAL WEATHER SERVICE DETROIT/PONTIAC MI
100 AM EDT TUE MAR 28 2017

NOTE: "FAIR" INDICATES FEW OR NO CLOUDS BELOW 12,000 FEET WITH NO
SIGNIFICANT WEATHER AND/OR OBSTRUCTION TO VISIBILITY.

MIZ047>049-052>055-059>063-066>070-074>076-081>083-280600-
SOUTHEAST LOWER MICHIGAN

CITY           SKY/WX    TMP DP  RH WIND       PRES   REMARKS
ADRIAN         CLOUDY    51  48  89 N9        29.91S
ALMA           CLOUDY    43  42  95 N7        29.95S
ANN ARBOR      CLOUDY    52  47  83 N7        29.90S
BAD AXE        CLOUDY    37  37 100 N6        29.95F FOG     WCI  33
CARO           CLOUDY    40  39  95 NE6       29.94S
DETROIT CITY   CLOUDY    49  47  93 E7        29.91S
DETROIT        CLOUDY    54  47  77 N6        29.91F
FLINT          CLOUDY    48  43  82 N5        29.93S
GROSSE ILE     CLOUDY    51  47  86 NE3       29.89S
HILLSDALE      CLOUDY    50  46  87 N5        29.90S
HOWELL         CLOUDY    47  43  84 N5        29.92S

CITY           SKY/WX    TMP DP  RH WIND       PRES   REMARKS
JACKSON        CLOUDY    50  44  80 N5        29.92S
LAMBERTVILLE   CLOUDY    55  50  83 NE5       29.89S
LANSING        CLOUDY    46  40  79 N6        29.94S
LAPEER         CLOUDY    47  44  90 N3        29.92F
MASON          CLOUDY    47  43  87 N3        29.93S
MONROE         CLOUDY    54  50  87 N5        29.89S
MT. CLEMENS    CLOUDY    47  47 100 NE7       29.90F
PONTIAC        CLOUDY    49  44  83 N6        29.90F
PORT HOPE        N/A     37  35  92 CALM      29.95S
PORT HURON     CLOUDY    37  36  93 N8        29.94S FOG     WCI  31
TRI CITIES     CLOUDY    40  40 100 NE9       29.96S FOG     WCI  34
MIDLAND        CLOUDY    41  39  93 CALM      29.95F FOG
TROY           CLOUDY    52  46  80 N7        29.92F
SAGINAW HB     CLOUDY    41  37  87 N8        29.95S FOG
$$
MIZ043>046-050>051-056>058-064>065-071>073-077>080-280600-
SOUTHWEST LOWER MICHIGAN

CITY           SKY/WX    TMP DP  RH WIND       PRES   REMARKS
BATTLE CREEK   CLOUDY    47  44  90 N5        29.93S
BENTON HARBOR  CLOUDY    38  35  89 NW3       29.96R
BIG RAPIDS     CLOUDY    39  37  93 N6        29.96R WCI  35
COLDWATER      CLOUDY    49  47  90 N5        29.92R
FREMONT        CLOUDY    39  37  93 N5        29.97R
HOLLAND        CLOUDY    41  36  82 N3        29.96S
GRAND RAPIDS   CLOUDY    45  42  89 N5        29.94S
IONIA          CLOUDY    44  40  86 N7        29.93S
KALAMAZOO      CLOUDY    45  40  82 N8        29.93F
LUDINGTON      CLOUDY    35  35 100 N3        29.99F
MARSHALL       CLOUDY    47  46  93 CALM      29.92S
MOUNT PLEASANT CLOUDY    41  38  91 N5        29.96S
MUSKEGON       MOCLDY    39  36  89 N8        29.98R WCI  33
SOUTH HAVEN    CLOUDY    36  35  96 CALM      29.96R
$$
MIZ016>042-280600-
NORTHERN LOWER MICHIGAN

CITY           SKY/WX    TMP DP  RH WIND       PRES   REMARKS
ALPENA         CLOUDY    37  36  96 N8        29.98R WCI  31
BEAVER ISLAND  CLEAR     33  32  98 CALM      30.02R
BELLAIRE       CLOUDY    36  34  90 CALM      30.00S
CADILLAC       CLOUDY    35  34  96 CALM      29.96S
CHARLEVOIX     CLOUDY    34  34 100 N5        30.03R WCI  30
FRANKFORT      CLOUDY    37  35  91 CALM      30.01R
GAYLORD        CLOUDY    36  33  89 CALM      29.96R FOG
GRAYLING       CLOUDY    37  34  87 CALM      29.98R
HARBOR SPRINGS CLOUDY    33  33  99 CALM      29.99S
HOUGHTON LAKE  CLOUDY    36  34  92 NW3       29.97R
MANISTEE       CLOUDY    37  36  93 CALM      30.00S
OSCODA         CLOUDY    38  38  97 CALM      29.96S
PELLSTON       CLOUDY    36  32  85 W7        30.00R WCI  30
ROGERS CITY    CLOUDY    36  34  93 NW7       29.99S WCI  30
TRAVERSE CITY  CLOUDY    37  34  89 N7        30.00R WCI  32
$$
MIZ007>008-015-280600-
EASTERN UPPER MICHIGAN

CITY           SKY/WX    TMP DP  RH WIND       PRES   REMARKS
KINROSS        CLOUDY    33  32  96 N9        29.99S WCI  25
MACKINAC ISLAN CLOUDY    34  34 100 NW5       29.99R WCI  30
NEWBERRY       CLOUDY    31  30  97 NW5       30.00S FOG     WCI  26
S. S. MARIE    CLOUDY    35  32  88 NW6       29.99R WCI  30
MUNISING         N/A     32  32 100 CALM      30.03R
$$
MIZ004>006-011>014-085-280600-
CENTRAL UPPER MICHIGAN

CITY           SKY/WX    TMP DP  RH WIND       PRES   REMARKS
MANISTIQUE     CLOUDY    30  30 100 N6        30.02R WCI  24
ESCANABA       CLEAR     29  28  96 W3        30.04R
MENOMINEE        N/A    N/A N/A N/A MISG        N/A
SAWYER-GWINN   CLEAR     30  29  99 N5        30.02R FOG     WCI  25
$$
MIZ001>003-009>011-084-280600-
WESTERN UPPER MICHIGAN

CITY           SKY/WX    TMP DP  RH WIND       PRES   REMARKS
IRON MOUNTAIN  CLEAR     29  26  89 CALM      30.01S FOG
HOUGHTON       CLEAR     33  28  81 NW9       30.02R WCI  25
COPPER HARBOR    N/A     30  28  92 W3        30.03R
IRONWOOD       CLEAR     26  24  92 CALM      30.04S
$$

ABBREVIATIONS USED IN REMARKS
   TC - TEMPERATURE IN CELSIUS
  WCI - WIND CHILL INDEX
   HX - HEAT INDEX
  VSB - VISIBILITY





USA.gov is the U.S. government's official web portal to all federal, state and local government web resources and services.